Content
SEND FEEDBACK

Daily
Averages
Monthly
Summary
Canada

INGONISH BEACH, NOVA SCOTIA


Home > North America > Canada > Nova Scotia
Elevation: 16 feet     Latitude: 46 39N     Longitude: 060 24W

WEATHER
 
SELECT A DAY
Number of Records: 127,936;   Date Range: 12/10/00 - 8/26/14
 
SHARE

PRINT THIS DATA

[ ← Previous Day ]
WEATHER ALMANAC - JANUARY 21, 2013
[ Next Day → ]
[ °C ]   °F
Weather ElementAverageHighLow
Temperature22.4 °F36 °F (1:00 am)15.4 °F (9:00 pm)
Dewpoint7.7 °F30.7 °F (1:00 am)0.9 °F (12:00 pm)
Humidity52.3 %81 % (1:00 am)31 % (2:00 pm)
Barometer29.64 in29.90 in (11:00 pm)29.41 in (1:00 am)
Wind Speed10.3 mph15 mph (12:00 pm)
Wind Gust31.1 mph (12:00 pm)
Weather ElementAverage
Wind DirectionWSW (250.4 °)

Weather ElementTotal
Precipitation---
Heating Degree Days39.3 (Base 65)
Averaged from 25 records on January 21, 2013
WEATHER CONDITIONS BREAKOUT
WIND DIRECTION BREAKOUT
WEATHER BY HOUR - JANUARY 21, 2013
[ °C ]   °F
Local TimeTemperatureDewpointHumidityBarometerVisibilityWind DirectionWind SpeedGust SpeedPrecipitationEventsConditions
1:00 AM36.0 °F30.7 °F81 %29.41 inWest (260°)9.2 mph18.4 mph
2:00 AM36.0 °F26.0 °F57 %29.43 inWest (260°)9.2 mph
2:00 AM35.6 °F26.4 °F69 %29.43 inWest (260°)9.2 mph17.3 mph
3:00 AM34.2 °F22.5 °F62 %29.45 inWest (260°)9.2 mph18.4 mph
4:00 AM31.5 °F22.1 °F68 %29.46 inSW (220°)4.6 mph
5:00 AM30.4 °F15.3 °F53 %29.49 inWSW (250°)9.2 mph20.7 mph
6:00 AM26.1 °F7.3 °F45 %29.52 inWest (260°)10.4 mph27.6 mph
7:00 AM22.6 °F2.8 °F43 %29.56 inWest (260°)11.5 mph23.0 mph
8:00 AM20.0 °F3.0 °F33 %29.60 inWest (260°)11.5 mph
8:00 AM20.1 °F3.2 °F48 %29.60 inWest (260°)11.5 mph24.2 mph
9:00 AM21.0 °F3.0 °F46 %29.62 inWest (260°)9.2 mph18.4 mph
10:00 AM20.1 °F1.0 °F44 %29.65 inWSW (250°)13.8 mph27.6 mph
11:00 AM20.5 °F1.2 °F43 %29.66 inWSW (250°)12.7 mph25.3 mph
12:00 PM19.8 °F0.9 °F44 %29.67 inWest (260°)15.0 mph31.1 mph
1:00 PM19.9 °F2.7 °F47 %29.68 inWest (270°)11.5 mph26.5 mph
2:00 PM19.0 °F1.0 °F31 %29.70 inWSW (250°)12.7 mph
2:00 PM19.0 °F1.2 °F46 %29.70 inWSW (250°)12.7 mph27.6 mph
3:00 PM17.6 °F2.8 °F53 %29.73 inWSW (250°)11.5 mph26.5 mph
4:00 PM16.3 °F1.9 °F53 %29.75 inWSW (250°)11.5 mph26.5 mph
5:00 PM15.8 °F1.9 °F54 %29.77 inWSW (250°)12.7 mph26.5 mph
6:00 PM16.2 °F2.1 °F54 %29.80 inWSW (250°)11.5 mph20.7 mph
7:00 PM16.2 °F2.1 °F54 %29.82 inWSW (250°)8.1 mph20.7 mph
8:00 PM15.6 °F1.4 °F54 %29.85 inSSW (200°)6.9 mph20.7 mph
9:00 PM15.4 °F3.6 °F59 %29.87 inSW (220°)5.8 mph
11:00 PM15.4 °F6.3 °F67 %29.90 inWSW (250°)6.9 mph
Hourly data recorded from CXIB, located miles away from Ingonish Beach, Nova Scotia







STORIES FROM OUR PARTNERS